FW1340 Weather Reports


time (UTC)temp
C
wind
direction
speed
KPH
gust
KPH
rain 1hr
cm
rain 24hr
cm
rain mn
cm
humidity
%
barometer
mb
20260510191524 24 250 0.0 0.0 0.00 0.00 0.00 54 1013.9
20260510190028 24 258 0.0 0.0 0.00 0.00 0.00 56 1014.1
20260510184518 23 265 0.0 0.0 0.00 0.00 0.00 57 1014.2
20260510183030 22 232 0.0 0.0 0.00 0.00 0.00 59 1014.3
20260510181509 22 262 0.0 0.0 0.00 0.00 0.00 60 1014.2
20260510180006 22 220 0.0 0.0 0.00 0.00 0.00 61 1014.3
20260510174503 21 255 0.0 0.0 0.00 0.00 0.00 61 1014.5
20260510173101 21 252 0.0 0.0 0.00 0.00 0.00 61 1014.4
20260510171603 21 221 0.0 0.0 0.00 0.00 0.00 64 1014.4
20260510170101 20 322 0.0 0.0 0.00 0.00 0.00 64 1014.3
20260510164558 20 279 0.0 0.0 0.00 0.00 0.00 67 1014.3
20260510163047 19 232 0.0 0.0 0.00 0.00 0.00 69 1014.3
20260510161547 18 314 0.0 0.0 0.00 0.00 0.00 71 1014.3
20260510160046 18 265 0.0 0.0 0.00 0.00 0.00 72 1014.3
20260510154536 18 231 0.0 0.0 0.00 0.00 0.00 74 1014.2
20260510153032 17 225 0.0 0.0 0.00 0.00 0.00 75 1014.1
20260510151523 17 186 0.0 0.0 0.00 0.00 0.00 78 1014.1
20260510150019 16 248 0.0 0.0 0.00 0.00 0.00 81 1014.0
20260510144522 15 267 0.0 0.0 0.00 0.00 0.00 84 1014.0
20260510143016 14 302 0.0 0.0 0.00 0.00 0.00 87 1013.8
20260510141512 13 252 0.0 0.0 0.00 0.00 0.00 88 1013.7
20260510140006 13 349 0.0 0.0 0.00 0.00 0.00 90 1013.5
20260510134502 12 318 0.0 0.0 0.00 0.00 0.00 91 1013.4
20260510133100 12 318 0.0 0.0 0.00 0.00 0.00 90 1013.2
20260510131600 12 318 0.0 0.0 0.00 0.00 0.00 89 1013.2
20260510130050 12 318 0.0 0.0 0.00 0.00 0.00 88 1013.0
20260510124608 12 318 0.0 0.0 0.00 0.00 0.00 87 1013.1
20260510123047 12 318 0.0 0.0 0.00 0.00 0.00 87 1013.0
20260510121544 12 318 0.0 0.0 0.00 0.00 0.00 87 1012.9
20260510120042 12 305 0.0 0.0 0.00 0.00 0.00 86 1012.9
20260510114542 13 305 0.0 0.0 0.00 0.00 0.00 86 1012.8
20260510113039 13 305 0.0 0.0 0.00 0.00 0.00 85 1012.9
20260510111559 13 305 0.0 0.0 0.00 0.00 0.00 85 1012.8
20260510110042 13 305 0.0 0.0 0.00 0.00 0.00 85 1012.7
20260510104541 13 288 0.0 0.0 0.00 0.00 0.00 84 1012.6
20260510103037 13 267 0.0 0.0 0.00 0.00 0.00 84 1012.7
20260510101531 13 263 0.0 0.0 0.00 0.00 0.00 83 1012.7
20260510100034 14 244 0.0 0.0 0.00 0.00 0.00 82 1012.7
20260510094531 14 264 0.0 0.0 0.00 0.00 0.00 82 1012.7
20260510093028 13 271 0.0 0.0 0.00 0.00 0.00 83 1012.7
20260510091542 14 269 0.0 0.0 0.00 0.00 0.00 83 1012.6
20260510090023 14 261 0.0 0.0 0.00 0.00 0.00 82 1012.6
20260510084525 15 261 0.0 0.0 0.00 0.00 0.00 80 1012.5
20260510083018 15 259 0.0 0.0 0.00 0.00 0.00 79 1012.4
20260510081531 15 274 0.0 0.0 0.00 0.00 0.00 76 1012.5
20260510080018 15 274 0.0 0.0 0.00 0.00 0.00 75 1012.5
20260510074512 16 249 0.0 0.0 0.00 0.00 0.00 74 1012.6
20260510073021 16 252 0.0 0.0 0.00 0.00 0.00 73 1012.6
20260510071511 16 271 0.0 0.0 0.00 0.00 0.00 72 1012.5
20260510070011 16 270 0.0 0.0 0.00 0.00 0.00 71 1012.5
20260510064516 17 269 0.0 0.0 0.00 0.00 0.00 70 1012.5
20260510063011 17 296 0.0 0.0 0.00 0.00 0.00 69 1012.4
20260510061505 17 256 0.0 0.0 0.00 0.00 0.00 68 1012.3
20260510060014 18 263 0.0 0.0 0.00 0.00 0.00 67 1012.4
20260510054502 18 306 0.0 0.0 0.00 0.00 0.00 67 1012.4
20260510053001 18 270 0.0 0.0 0.00 0.00 0.00 67 1012.1
20260510051501 18 255 0.0 0.0 0.00 0.00 0.00 66 1012.0
20260510050112 19 263 0.0 0.0 0.00 0.00 0.00 66 1012.1
20260510050001 19 258 0.0 0.0 0.00 0.00 0.00 66 1012.0
20260510044611 19 281 0.0 0.0 0.00 0.00 0.00 66 1011.9
20260510043100 20 265 0.0 0.0 0.00 0.00 0.00 66 1011.8
20260510041607 20 257 0.0 0.0 0.00 0.00 0.00 66 1011.8
20260510040059 20 250 0.0 0.0 0.00 0.00 0.00 65 1011.6
20260510034605 21 246 0.0 0.0 0.00 0.00 0.00 63 1011.5
20260510033057 22 245 0.0 0.0 0.00 0.00 0.00 59 1011.3
20260510031606 22 281 0.0 0.0 0.00 0.00 0.00 56 1011.1
20260510030103 23 244 0.0 0.0 0.00 0.00 0.00 56 1011.0
20260510024555 25 240 0.0 0.0 0.00 0.00 0.00 57 1010.9
20260510023053 25 257 0.0 0.0 0.00 0.00 0.00 53 1010.8
20260510021552 26 269 0.0 0.0 0.00 0.00 0.00 52 1010.8
20260510020052 26 259 0.0 0.0 0.00 0.00 0.00 51 1010.9
20260510014551 27 260 0.0 0.0 0.00 0.00 0.00 50 1010.9
20260510013054 27 257 0.0 0.0 0.00 0.00 0.00 49 1010.9
20260510011550 28 269 0.0 0.0 0.00 0.00 0.00 48 1010.9
20260510010049 28 279 0.0 0.0 0.00 0.00 0.00 48 1010.9
20260510004549 29 272 0.0 0.0 0.00 0.00 0.00 46 1010.9
20260510003056 30 279 0.0 0.0 0.00 0.00 0.00 44 1010.9
20260510001550 30 251 0.0 0.0 0.00 0.00 0.00 42 1010.9
20260510000046 31 296 0.0 0.0 0.00 0.00 0.00 43 1010.9
20260509234600 31 273 0.0 0.0 0.00 0.00 0.00 43 1011.0
20260509233053 31 250 0.0 0.0 0.00 0.00 0.00 41 1011.2
20260509231601 31 220 0.0 0.0 0.00 0.00 0.00 41 1011.2
20260509230039 31 273 0.0 0.0 0.00 0.00 0.00 41 1011.3
20260509224537 31 246 0.0 0.0 0.00 0.00 0.00 42 1011.5
20260509223037 31 271 0.0 0.0 0.00 0.00 0.00 43 1011.7
20260509221532 31 300 0.0 0.0 0.00 0.00 0.00 44 1011.9
20260509220034 30 286 0.0 0.0 0.00 0.00 0.00 43 1011.9
20260509214529 30 284 0.0 0.0 0.00 0.00 0.00 46 1012.0
20260509213026 30 277 0.0 0.0 0.00 0.00 0.00 46 1012.2
20260509211523 30 276 0.0 0.0 0.00 0.00 0.00 47 1012.4
20260509210023 29 340 0.0 0.0 0.00 0.00 0.00 46 1012.6
20260509204515 28 331 0.0 0.0 0.00 0.00 0.00 49 1012.7
20260509203011 28 261 0.0 0.0 0.00 0.00 0.00 51 1012.9
20260509201507 27 238 0.0 0.0 0.00 0.00 0.00 54 1013.0
20260509200003 27 360 0.0 0.0 0.00 0.00 0.00 53 1013.2
20260509194600 27 287 0.0 0.0 0.00 0.00 0.00 54 1013.4
20260509193100 26 281 0.0 0.0 0.00 0.00 0.00 56 1013.5